DECAYED
Showing default

FLOCK 4Y 34, 55082 (Decayed)

Orbit data source: Space-Track

FLOCK 4Y 34, 55082 was a payload satellite owned by Planet (US) in LEO that was launched on Tue, 03 Jan 2023 UTC via an FALCON 9 launch vehicle from the Air Force Eastern Test Range (AFETR). Payload-class satellites include a variety of spacecraft equipped with specific instruments for various scientific and technological missions. These include communications satellites like Starlink; space stations such as the ISS; scientific satellites like the Hubble; Earth observation satellites from companies like Planet Labs, Umbra, and HawkEye 360; GPS; miniature CubeSats for education and research; and military/defense satellites.

Not visible in the next 10 days
Identifier
55082, 2023-001CB
Orbit
Decayed
Country
Flag of USUS
Related business
Manufacturer
Planet
Mission
Decayed Commercial Imaging
Bus & Motor
CUBESAT 3U, Unknown motor
Mass
5.7 kg wet, 5.7 kg dry
Launch date (UTC)
2023-01-03 (3 years ago)
Launch vehicle
FALCON 9
Launch site
Air Force Eastern Test Range (AFETR)
Object type
Payload
Rocket body
Debris
Shape & HBR
Box + 2 Pan, 1.0 m
Radar Cross Section
0.108 m², Medium (>0.1 m² and < 1m²)

Expand to show TLE details & history
Last TLE update: 6 months ago

TLE from 6 months ago
0 FLOCK 4Y 34
1 55082U 23001CB  25215.13705484  .19175044  25309-5  28656-3 0  9998
2 55082  97.3311 292.6711 0018159 257.5481 102.3791 16.47288288144534
Epoch: 2025-08-03T03:17Z
TLE epoch observation values (Epoch: 2025-08-03T03:17:21.538Z)
Latitude
0.00003°
Longitude
-68.63184°
Altitude
152.31 km
Speed
7.813 km/s
True Right ascension
19h 30m 41s
True Declination
0° 00' 00"
Sunlit
Object was in full shadow at epoch
Visualization orbit readout
Latitude
Unknown
Longitude
Unknown
Altitude
Unknown
Speed
Unknown
Apparent Right ascension
Unknown
Apparent Declination
Unknown
Sunlit
N/A
Visualization observer readout
Local Sidereal Time
14:15:47
Azimuth
Unknown
Elevation
Unknown
Doppler factor
Unknown
Orbital elements
Apogee altitude
155.123 km
Perigee altitude
131.439 km
Semi-major axis
6,521.418 km
Eccentricity
0.00182
Inclination
97.3311°
RAAN
292.6711°
Arg. of periapsis
257.5481°
True anomaly
102.58225°
Mean anomaly
102.3791°
Eccentric anomaly
102.48068°
Mean motion
4.12126 °/min
Orbital period
87.35 mins
BSTAR
0.00028656
Loading maneuver chart data...
Computing Atmospheric mass density...

Documentation

Showing up to 5 results
|